Time,TemperatureF,DewpointF,PressureIn,WindDirection,WindDirectionDegrees,WindSpeedMPH,WindSpeedGustMPH,Humidity,HourlyPrecipIn,Conditions,Clouds,dailyrainin,SolarRadiationWatts/m^2,SoftwareType,DateUTC
2013-03-05 00:01:00,72.0,55.0,-100.00,East,81,5.0,12.0,56,0.00,,,0.00,0.000000,,2013-03-05 10:01:00,
2013-03-05 00:11:00,72.0,55.0,-100.00,East,81,5.0,12.0,56,0.00,,,0.00,0.000000,,2013-03-05 10:11:00,
2013-03-05 00:21:00,72.0,55.0,-100.00,East,81,5.0,12.0,56,0.00,,,0.00,0.000000,,2013-03-05 10:21:00,
2013-03-05 00:42:00,69.0,53.0,-100.00,East,85,6.0,10.0,56,0.00,,,0.00,0.000000,,2013-03-05 10:42:00,
2013-03-05 00:52:00,69.0,53.0,-100.00,East,85,6.0,10.0,56,0.00,,,0.00,0.000000,,2013-03-05 10:52:00,
2013-03-05 01:01:00,69.0,53.0,-100.00,East,85,6.0,10.0,56,0.00,,,0.00,0.000000,,2013-03-05 11:01:00,
2013-03-05 01:11:00,69.0,53.0,-100.00,East,85,6.0,10.0,56,0.00,,,0.00,0.000000,,2013-03-05 11:11:00,
2013-03-05 01:21:00,69.0,53.0,-100.00,East,85,6.0,10.0,56,0.00,,,0.00,0.000000,,2013-03-05 11:21:00,
2013-03-05 01:42:00,70.0,56.0,-100.00,East,80,6.0,12.0,61,0.00,,,0.00,0.000000,,2013-03-05 11:42:00,
2013-03-05 01:52:00,70.0,56.0,-100.00,East,80,6.0,12.0,61,0.00,,,0.00,0.000000,,2013-03-05 11:52:00,
2013-03-05 02:02:00,70.0,56.0,-100.00,East,80,6.0,12.0,61,0.00,,,0.00,0.000000,,2013-03-05 12:02:00,
2013-03-05 02:11:00,70.0,56.0,-100.00,East,80,6.0,12.0,61,0.00,,,0.00,0.000000,,2013-03-05 12:11:00,
2013-03-05 02:22:00,70.0,56.0,-100.00,East,80,6.0,12.0,61,0.00,,,0.00,0.000000,,2013-03-05 12:22:00,
2013-03-05 02:42:00,69.0,54.0,-100.00,East,79,4.0,10.0,58,0.00,,,0.00,0.000000,,2013-03-05 12:42:00,
2013-03-05 02:52:00,69.0,54.0,-100.00,East,79,4.0,10.0,58,0.00,,,0.00,0.000000,,2013-03-05 12:52:00,
2013-03-05 03:02:00,69.0,54.0,-100.00,East,79,4.0,10.0,58,0.00,,,0.00,0.000000,,2013-03-05 13:02:00,
2013-03-05 03:11:00,69.0,54.0,-100.00,East,79,4.0,10.0,58,0.00,,,0.00,0.000000,,2013-03-05 13:11:00,
2013-03-05 03:21:00,69.0,54.0,-100.00,East,79,4.0,10.0,58,0.00,,,0.00,0.000000,,2013-03-05 13:21:00,
2013-03-05 03:42:00,68.0,54.0,-100.00,East,85,5.0,9.0,62,0.00,,,-99.99,0.000000,,2013-03-05 13:42:00,
2013-03-05 03:52:00,68.0,54.0,-100.00,East,85,5.0,9.0,62,0.00,,,-99.99,0.000000,,2013-03-05 13:52:00,
2013-03-05 04:02:00,68.0,54.0,-100.00,East,85,5.0,9.0,62,0.00,,,-99.99,0.000000,,2013-03-05 14:02:00,
2013-03-05 04:11:00,68.0,54.0,-100.00,East,85,5.0,9.0,62,0.00,,,-99.99,0.000000,,2013-03-05 14:11:00,
2013-03-05 04:21:00,68.0,54.0,-100.00,East,85,5.0,9.0,62,0.00,,,-99.99,0.000000,,2013-03-05 14:21:00,
2013-03-05 04:42:00,67.0,52.0,-100.00,East,79,6.0,11.0,59,0.00,,,0.00,0.000000,,2013-03-05 14:42:00,
2013-03-05 04:52:00,67.0,52.0,-100.00,East,79,6.0,11.0,59,0.00,,,0.00,0.000000,,2013-03-05 14:52:00,
2013-03-05 05:01:00,67.0,52.0,-100.00,East,79,6.0,11.0,59,0.00,,,0.00,0.000000,,2013-03-05 15:01:00,
2013-03-05 05:11:00,67.0,52.0,-100.00,East,79,6.0,11.0,59,0.00,,,0.00,0.000000,,2013-03-05 15:11:00,
2013-03-05 05:21:00,67.0,52.0,-100.00,East,79,6.0,11.0,59,0.00,,,0.00,0.000000,,2013-03-05 15:21:00,
2013-03-05 05:42:00,67.0,52.0,-100.00,East,83,7.0,13.0,59,0.00,,,0.00,0.000000,,2013-03-05 15:42:00,
2013-03-05 05:52:00,67.0,52.0,-100.00,East,83,7.0,13.0,59,0.00,,,0.00,0.000000,,2013-03-05 15:52:00,
2013-03-05 06:01:00,67.0,52.0,-100.00,East,83,7.0,13.0,59,0.00,,,0.00,0.000000,,2013-03-05 16:01:00,
2013-03-05 06:11:00,67.0,52.0,-100.00,East,83,7.0,13.0,59,0.00,,,0.00,0.000000,,2013-03-05 16:11:00,
2013-03-05 06:21:00,67.0,52.0,-100.00,East,83,7.0,13.0,59,0.00,,,0.00,0.000000,,2013-03-05 16:21:00,
2013-03-05 06:42:00,67.0,50.0,-100.00,East,80,6.0,13.0,55,0.00,,,0.00,0.000000,,2013-03-05 16:42:00,
2013-03-05 06:52:00,67.0,50.0,-100.00,East,80,6.0,13.0,55,0.00,,,0.00,0.000000,,2013-03-05 16:52:00,
2013-03-05 07:01:00,67.0,50.0,-100.00,East,80,6.0,13.0,55,0.00,,,0.00,0.000000,,2013-03-05 17:01:00,
2013-03-05 07:11:00,67.0,50.0,-100.00,East,80,6.0,13.0,55,0.00,,,0.00,0.000000,,2013-03-05 17:11:00,
2013-03-05 07:21:00,67.0,50.0,-100.00,East,80,6.0,13.0,55,0.00,,,0.00,0.000000,,2013-03-05 17:21:00,
2013-03-05 07:42:00,66.0,51.0,-100.00,East,82,6.0,10.0,58,0.00,,,0.00,4.000000,,2013-03-05 17:42:00,
2013-03-05 07:52:00,66.0,51.0,-100.00,East,82,6.0,10.0,58,0.00,,,0.00,4.000000,,2013-03-05 17:52:00,
2013-03-05 08:01:00,66.0,51.0,-100.00,East,82,6.0,10.0,58,0.00,,,0.00,4.000000,,2013-03-05 18:01:00,
2013-03-05 08:11:00,66.0,51.0,-100.00,East,82,6.0,10.0,58,0.00,,,0.00,4.000000,,2013-03-05 18:11:00,
2013-03-05 08:21:00,66.0,51.0,-100.00,East,82,6.0,10.0,58,0.00,,,0.00,4.000000,,2013-03-05 18:21:00,
2013-03-05 08:42:00,69.0,49.0,-100.00,ENE,70,5.0,11.0,49,0.00,,,0.00,160.000000,,2013-03-05 18:42:00,
2013-03-05 08:53:00,69.0,49.0,-100.00,ENE,70,5.0,11.0,49,0.00,,,0.00,160.000000,,2013-03-05 18:53:00,
2013-03-05 09:01:00,69.0,49.0,-100.00,ENE,70,5.0,11.0,49,0.00,,,0.00,160.000000,,2013-03-05 19:01:00,
2013-03-05 09:11:00,69.0,49.0,-100.00,ENE,70,5.0,11.0,49,0.00,,,0.00,160.000000,,2013-03-05 19:11:00,
2013-03-05 09:21:00,69.0,49.0,-100.00,ENE,70,5.0,11.0,49,0.00,,,0.00,160.000000,,2013-03-05 19:21:00,
2013-03-05 09:42:00,74.0,54.0,-100.00,West,272,3.0,7.0,50,0.00,,,0.00,403.000000,,2013-03-05 19:42:00,
2013-03-05 09:52:00,74.0,54.0,-100.00,West,272,3.0,7.0,50,0.00,,,0.00,403.000000,,2013-03-05 19:52:00,
2013-03-05 10:01:00,74.0,54.0,-100.00,West,272,3.0,7.0,50,0.00,,,0.00,403.000000,,2013-03-05 20:01:00,
2013-03-05 10:11:00,74.0,54.0,-100.00,West,272,3.0,7.0,50,0.00,,,0.00,403.000000,,2013-03-05 20:11:00,
2013-03-05 10:21:00,74.0,54.0,-100.00,West,272,3.0,7.0,50,0.00,,,0.00,403.000000,,2013-03-05 20:21:00,
2013-03-05 10:42:00,75.0,53.0,-100.00,WNW,292,4.0,9.0,47,0.00,,,0.00,632.000000,,2013-03-05 20:42:00,
2013-03-05 10:52:00,75.0,53.0,-100.00,WNW,292,4.0,9.0,47,0.00,,,0.00,632.000000,,2013-03-05 20:52:00,
2013-03-05 11:01:00,75.0,53.0,-100.00,WNW,292,4.0,9.0,47,0.00,,,0.00,632.000000,,2013-03-05 21:01:00,
2013-03-05 11:11:00,75.0,53.0,-100.00,WNW,292,4.0,9.0,47,0.00,,,0.00,632.000000,,2013-03-05 21:11:00,
2013-03-05 11:21:00,75.0,53.0,-100.00,WNW,292,4.0,9.0,47,0.00,,,0.00,632.000000,,2013-03-05 21:21:00,
2013-03-05 11:42:00,76.0,52.0,-100.00,West,277,5.0,10.0,44,0.00,,,0.00,811.000000,,2013-03-05 21:42:00,
2013-03-05 11:52:00,76.0,52.0,-100.00,West,277,5.0,10.0,44,0.00,,,0.00,811.000000,,2013-03-05 21:52:00,
2013-03-05 12:01:00,76.0,52.0,-100.00,West,277,5.0,10.0,44,0.00,,,0.00,811.000000,,2013-03-05 22:01:00,
2013-03-05 12:11:00,76.0,52.0,-100.00,West,277,5.0,10.0,44,0.00,,,0.00,811.000000,,2013-03-05 22:11:00,
2013-03-05 12:21:00,76.0,52.0,-100.00,West,277,5.0,10.0,44,0.00,,,0.00,811.000000,,2013-03-05 22:21:00,
2013-03-05 12:42:00,77.0,52.0,-100.00,West,277,8.0,12.0,42,0.00,,,0.00,923.000000,,2013-03-05 22:42:00,
2013-03-05 12:52:00,77.0,52.0,-100.00,West,277,8.0,12.0,42,0.00,,,0.00,923.000000,,2013-03-05 22:52:00,
2013-03-05 13:01:00,77.0,52.0,-100.00,West,277,8.0,12.0,42,0.00,,,0.00,923.000000,,2013-03-05 23:01:00,
2013-03-05 13:11:00,77.0,52.0,-100.00,West,277,8.0,12.0,42,0.00,,,0.00,923.000000,,2013-03-05 23:11:00,
2013-03-05 13:21:00,77.0,52.0,-100.00,West,277,8.0,12.0,42,0.00,,,0.00,923.000000,,2013-03-05 23:21:00,
2013-03-05 13:42:00,78.0,56.0,-100.00,West,278,8.0,12.0,46,0.00,,,0.00,961.000000,,2013-03-05 23:42:00,
2013-03-05 13:52:00,78.0,56.0,-100.00,West,278,8.0,12.0,46,0.00,,,0.00,961.000000,,2013-03-05 23:52:00,
2013-03-05 14:01:00,78.0,56.0,-100.00,West,278,8.0,12.0,46,0.00,,,0.00,961.000000,,2013-03-06 00:01:00,
2013-03-05 14:11:00,78.0,56.0,-100.00,West,278,8.0,12.0,46,0.00,,,0.00,961.000000,,2013-03-06 00:11:00,
2013-03-05 14:21:00,78.0,56.0,-100.00,West,278,8.0,12.0,46,0.00,,,0.00,961.000000,,2013-03-06 00:21:00,
2013-03-05 14:42:00,79.0,55.0,-100.00,West,259,7.0,11.0,43,0.00,,,0.00,924.000000,,2013-03-06 00:42:00,
2013-03-05 14:52:00,79.0,55.0,-100.00,West,259,7.0,11.0,43,0.00,,,0.00,924.000000,,2013-03-06 00:52:00,
2013-03-05 15:01:00,79.0,55.0,-100.00,West,259,7.0,11.0,43,0.00,,,0.00,924.000000,,2013-03-06 01:01:00,
2013-03-05 15:11:00,79.0,55.0,-100.00,West,259,7.0,11.0,43,0.00,,,0.00,924.000000,,2013-03-06 01:11:00,
2013-03-05 15:21:00,79.0,55.0,-100.00,West,259,7.0,11.0,43,0.00,,,0.00,924.000000,,2013-03-06 01:21:00,
2013-03-05 15:42:00,79.0,57.0,-100.00,SW,225,5.0,10.0,47,0.00,,,0.00,824.000000,,2013-03-06 01:42:00,
2013-03-05 15:52:00,79.0,57.0,-100.00,SW,225,5.0,10.0,47,0.00,,,0.00,824.000000,,2013-03-06 01:52:00,
2013-03-05 16:01:00,79.0,57.0,-100.00,SW,225,5.0,10.0,47,0.00,,,0.00,824.000000,,2013-03-06 02:01:00,
2013-03-05 16:11:00,79.0,57.0,-100.00,SW,225,5.0,10.0,47,0.00,,,0.00,824.000000,,2013-03-06 02:11:00,
2013-03-05 16:21:00,79.0,57.0,-100.00,SW,225,5.0,10.0,47,0.00,,,0.00,824.000000,,2013-03-06 02:21:00,
2013-03-05 16:42:00,78.0,57.0,-100.00,SW,218,5.0,8.0,49,0.00,,,0.00,621.000000,,2013-03-06 02:42:00,
2013-03-05 16:52:00,78.0,57.0,-100.00,SW,218,5.0,8.0,49,0.00,,,0.00,621.000000,,2013-03-06 02:52:00,
2013-03-05 17:01:00,78.0,57.0,-100.00,SW,218,5.0,8.0,49,0.00,,,0.00,621.000000,,2013-03-06 03:01:00,
2013-03-05 17:11:00,78.0,57.0,-100.00,SW,218,5.0,8.0,49,0.00,,,0.00,621.000000,,2013-03-06 03:11:00,
2013-03-05 17:21:00,78.0,57.0,-100.00,SW,218,5.0,8.0,49,0.00,,,0.00,621.000000,,2013-03-06 03:21:00,
2013-03-05 17:42:00,79.0,56.0,-100.00,WSW,240,5.0,8.0,45,0.00,,,0.00,423.000000,,2013-03-06 03:42:00,
2013-03-05 17:52:00,79.0,56.0,-100.00,WSW,240,5.0,8.0,45,0.00,,,0.00,423.000000,,2013-03-06 03:52:00,
2013-03-05 18:01:00,79.0,56.0,-100.00,WSW,240,5.0,8.0,45,0.00,,,0.00,423.000000,,2013-03-06 04:01:00,
2013-03-05 18:11:00,79.0,56.0,-100.00,WSW,240,5.0,8.0,45,0.00,,,0.00,423.000000,,2013-03-06 04:11:00,
2013-03-05 18:21:00,79.0,56.0,-100.00,WSW,240,5.0,8.0,45,0.00,,,0.00,423.000000,,2013-03-06 04:21:00,
2013-03-05 18:42:00,78.0,59.0,-100.00,SW,233,4.0,9.0,53,0.00,,,0.00,210.000000,,2013-03-06 04:42:00,
2013-03-05 18:52:00,78.0,59.0,-100.00,SW,233,4.0,9.0,53,0.00,,,0.00,210.000000,,2013-03-06 04:52:00,
2013-03-05 19:01:00,78.0,59.0,-100.00,SW,233,4.0,9.0,53,0.00,,,0.00,210.000000,,2013-03-06 05:01:00,
2013-03-05 19:11:00,78.0,59.0,-100.00,SW,233,4.0,9.0,53,0.00,,,0.00,210.000000,,2013-03-06 05:11:00,
2013-03-05 19:22:00,78.0,59.0,-100.00,SW,233,4.0,9.0,53,0.00,,,0.00,210.000000,,2013-03-06 05:22:00,
2013-03-05 19:42:00,76.0,55.0,-100.00,WSW,255,3.0,8.0,49,0.00,,,-99.99,13.000000,,2013-03-06 05:42:00,
2013-03-05 19:52:00,76.0,55.0,-100.00,WSW,255,3.0,8.0,49,0.00,,,-99.99,13.000000,,2013-03-06 05:52:00,
2013-03-05 20:01:00,76.0,55.0,-100.00,WSW,255,3.0,8.0,49,0.00,,,-99.99,13.000000,,2013-03-06 06:01:00,
2013-03-05 20:11:00,76.0,55.0,-100.00,WSW,255,3.0,8.0,49,0.00,,,-99.99,13.000000,,2013-03-06 06:11:00,
2013-03-05 20:21:00,76.0,55.0,-100.00,WSW,255,3.0,8.0,49,0.00,,,-99.99,13.000000,,2013-03-06 06:21:00,
2013-03-05 20:42:00,75.0,52.0,-100.00,NW,326,1.0,5.0,45,0.00,,,0.00,0.000000,,2013-03-06 06:42:00,
2013-03-05 20:52:00,75.0,52.0,-100.00,NW,326,1.0,5.0,45,0.00,,,0.00,0.000000,,2013-03-06 06:52:00,
2013-03-05 21:01:00,75.0,52.0,-100.00,NW,326,1.0,5.0,45,0.00,,,0.00,0.000000,,2013-03-06 07:01:00,
2013-03-05 21:11:00,75.0,52.0,-100.00,NW,326,1.0,5.0,45,0.00,,,0.00,0.000000,,2013-03-06 07:11:00,
2013-03-05 21:21:00,75.0,52.0,-100.00,NW,326,1.0,5.0,45,0.00,,,0.00,0.000000,,2013-03-06 07:21:00,
2013-03-05 21:42:00,74.0,56.0,-100.00,ENE,60,7.0,18.0,54,0.00,,,0.00,0.000000,,2013-03-06 07:42:00,
2013-03-05 21:52:00,74.0,56.0,-100.00,ENE,60,7.0,18.0,54,0.00,,,0.00,0.000000,,2013-03-06 07:52:00,
2013-03-05 22:01:00,74.0,56.0,-100.00,ENE,60,7.0,18.0,54,0.00,,,0.00,0.000000,,2013-03-06 08:01:00,
2013-03-05 22:11:00,74.0,56.0,-100.00,ENE,60,7.0,18.0,54,0.00,,,0.00,0.000000,,2013-03-06 08:11:00,
2013-03-05 22:21:00,74.0,56.0,-100.00,ENE,60,7.0,18.0,54,0.00,,,0.00,0.000000,,2013-03-06 08:21:00,
2013-03-05 22:42:00,72.0,54.0,-100.00,East,83,13.0,26.0,53,0.00,,,0.00,0.000000,,2013-03-06 08:42:00,
2013-03-05 22:52:00,72.0,54.0,-100.00,East,83,13.0,26.0,53,0.00,,,0.00,0.000000,,2013-03-06 08:52:00,
2013-03-05 23:01:00,72.0,54.0,-100.00,East,83,13.0,26.0,53,0.00,,,0.00,0.000000,,2013-03-06 09:01:00,
2013-03-05 23:12:00,72.0,54.0,-100.00,East,83,13.0,26.0,53,0.00,,,0.00,0.000000,,2013-03-06 09:12:00,
2013-03-05 23:21:00,72.0,54.0,-100.00,East,83,13.0,26.0,53,0.00,,,0.00,0.000000,,2013-03-06 09:21:00,
2013-03-05 23:42:00,71.0,55.0,-100.00,East,89,14.0,26.0,57,0.00,,,0.00,0.000000,,2013-03-06 09:42:00,
2013-03-05 23:52:00,71.0,55.0,-100.00,East,89,14.0,26.0,57,0.00,,,0.00,0.000000,,2013-03-06 09:52:00,